Weather History for KMRN - September, 2013

Change the Weather History Date:

Tuesday, September 24, 2013

  Actual Average (KHKY) Record (KHKY)
Temperature  
Mean Temperature 66 °F -  
Max Temperature 77 °F 76 °F 92 °F (1961)
Min Temperature 55 °F 55 °F 40 °F (1990)
Cooling Degree Days 1    
Growing Degree Days 16 (Base 50)    
Moisture  
Dew Point 58 °F    
Average Humidity 82    
Maximum Humidity 100    
Minimum Humidity 45    
Precipitation  
Precipitation 0.00 in - - ()
Sea Level Pressure  
Sea Level Pressure 30.08 in    
Wind  
Wind Speed 1 mph (East)    
Max Wind Speed 6 mph    
Max Gust Speed -    
Visibility 8 miles    
Events      
Averages and records for this station are not official NWS values.
T = Trace of Precipitation, MM = Missing Value Source: NWS Daily Summary

Daily Weather History Graph

Daily Weather History Graph

Search for Another Location

Airport or City:

Trip Planner

Search our weather history database for the weather conditions in past years. The results will help you decide how hot, cold, wet, or windy it might be!

Date:

Astronomy

Sep. 24, 2013 Rise Set
Actual Time 7:16 AM EDT 7:20 PM EDT
Civil Twilight 6:50 AM EDT 7:45 PM EDT
Nautical Twilight 6:20 AM EDT 8:15 PM EDT
Astronomical Twilight 5:50 AM EDT 8:45 PM EDT
Moon 10:46 PM EDT (9/24) 12:19 PM EDT (9/24)
Length of Visible Light 12h 54m
Length of Day
12h 03m
Waning Gibbous, 73% of the Moon is Illuminated
Sep 24
Waning Gibbous
Sep 26
Last Quarter
Oct 4
New
Oct 11
First Quarter
Oct 18
Full

Hourly Weather History & Observations

Time (EDT) Temp. Dew Point Humidity Pressure Visibility Wind Dir Wind Speed Gust Speed Precip Events Conditions
12:15 AM 59.5 °F 59.2 °F 99% 30.13 in 7.0 mi Calm Calm - N/A   Overcast
12:35 AM 59.2 °F 59.0 °F 99% 30.13 in 7.0 mi Calm Calm - N/A   Overcast
12:55 AM 59.2 °F 59.0 °F 99% 30.13 in 7.0 mi Calm Calm - N/A   Overcast
1:15 AM 59.2 °F 59.0 °F 99% 30.13 in 7.0 mi Calm Calm - N/A   Overcast
1:35 AM 59.2 °F 59.0 °F 99% 30.13 in 7.0 mi Calm Calm - N/A   Overcast
1:55 AM 59.4 °F 59.2 °F 99% 30.13 in 5.0 mi Calm Calm - N/A   Overcast
2:15 AM 59.2 °F 59.2 °F 100% 30.13 in 5.0 mi Calm Calm - N/A   Overcast
2:35 AM 59.5 °F 59.5 °F 100% 30.13 in 7.0 mi Calm Calm - N/A   Overcast
2:55 AM 59.4 °F 59.2 °F 99% 30.13 in 7.0 mi Calm Calm - N/A   Overcast
3:35 AM 59.2 °F 59.2 °F 100% 30.13 in 7.0 mi Calm Calm - N/A   Overcast
3:55 AM 59.2 °F 59.2 °F 100% 30.12 in 7.0 mi Calm Calm - N/A   Overcast
4:15 AM 59.2 °F 59.2 °F 100% 30.12 in 7.0 mi Calm Calm - N/A   Overcast
4:35 AM 59.2 °F 59.2 °F 100% 30.12 in 7.0 mi North 3.5 mph - N/A   Overcast
4:55 AM 59.0 °F 59.0 °F 100% 30.12 in 7.0 mi Calm Calm - N/A   Overcast
5:35 AM 59.0 °F 58.8 °F 99% 30.13 in 7.0 mi Calm Calm - N/A   Overcast
5:55 AM 59.0 °F 58.6 °F 99% 30.13 in 7.0 mi North 3.5 mph - N/A   Overcast
6:15 AM 59.0 °F 58.6 °F 99% 30.13 in 7.0 mi Calm Calm - N/A   Overcast
6:35 AM 58.6 °F 58.5 °F 99% 30.14 in 7.0 mi Calm Calm - N/A   Overcast
6:55 AM 58.1 °F 58.1 °F 100% 30.14 in 7.0 mi Calm Calm - N/A   Mostly Cloudy
7:15 AM 57.0 °F 57.0 °F 100% 30.14 in 3.0 mi Calm Calm - N/A   Scattered Clouds
7:35 AM 55.9 °F 55.9 °F 100% 30.15 in 3.0 mi Calm Calm - N/A   Scattered Clouds
7:55 AM 55.4 °F 55.4 °F 100% 30.15 in 2.5 mi Calm Calm - N/A   Clear
8:15 AM 58.3 °F 58.3 °F 100% 30.15 in 7.0 mi Calm Calm - N/A   Clear
8:35 AM 59.2 °F 58.6 °F 98% 30.15 in 10.0 mi North 3.5 mph - N/A   Clear
8:55 AM 60.3 °F 58.1 °F 93% 30.15 in 10.0 mi North 3.5 mph - N/A   Clear
9:15 AM 62.2 °F 58.3 °F 87% 30.15 in 10.0 mi North 3.5 mph - N/A   Clear
9:35 AM 63.5 °F 58.6 °F 84% 30.15 in 10.0 mi Calm Calm - N/A   Clear
9:55 AM 65.3 °F 58.3 °F 78% 30.14 in 10.0 mi Calm Calm - N/A   Clear
10:15 AM 67.1 °F 58.1 °F 73% 30.14 in 10.0 mi Calm Calm - N/A   Clear
10:35 AM 67.5 °F 57.4 °F 70% 30.14 in 10.0 mi Calm Calm - N/A   Scattered Clouds
10:55 AM 67.6 °F 56.7 °F 68% 30.14 in 10.0 mi Calm Calm - N/A   Scattered Clouds
11:15 AM 68.7 °F 57.9 °F 68% 30.14 in 10.0 mi Calm Calm - N/A   Clear
11:35 AM 70.3 °F 58.3 °F 66% 30.13 in 10.0 mi Calm Calm - N/A   Clear
11:55 AM 71.2 °F 58.1 °F 63% 30.12 in 10.0 mi Calm Calm - N/A   Scattered Clouds
12:15 PM 70.7 °F 57.2 °F 62% 30.12 in 10.0 mi Calm Calm - N/A   Scattered Clouds
12:35 PM 72.3 °F 56.5 °F 57% 30.10 in 10.0 mi Calm Calm - N/A   Mostly Cloudy
1:15 PM 73.8 °F 54.5 °F 51% 30.08 in 10.0 mi Calm Calm - N/A   Clear
1:55 PM 74.3 °F 55.9 °F 53% 30.07 in 10.0 mi Calm Calm - N/A   Scattered Clouds
2:15 PM 74.1 °F 55.9 °F 53% 30.06 in 10.0 mi South 3.5 mph - N/A   Scattered Clouds
2:35 PM 75.6 °F 55.4 °F 49% 30.06 in 10.0 mi Calm Calm - N/A   Scattered Clouds
2:55 PM 76.3 °F 56.7 °F 51% 30.05 in 10.0 mi East 3.5 mph - N/A   Clear
3:15 PM 77.0 °F 56.1 °F 48% 30.04 in 10.0 mi ENE 3.5 mph - N/A   Clear
3:35 PM 74.3 °F 55.8 °F 52% 30.04 in 10.0 mi Calm Calm - N/A   Clear
3:55 PM 76.6 °F 54.5 °F 46% 30.03 in 10.0 mi Calm Calm - N/A   Clear
4:15 PM 77.4 °F 55.0 °F 46% 30.02 in 10.0 mi SSE 4.6 mph - N/A   Scattered Clouds
4:35 PM 77.0 °F 54.3 °F 45% 30.02 in 10.0 mi Calm Calm - N/A   Scattered Clouds
4:55 PM 75.4 °F 57.2 °F 53% 30.01 in 10.0 mi Calm Calm - N/A   Scattered Clouds
5:15 PM 76.3 °F 56.7 °F 51% 30.01 in 10.0 mi ESE 4.6 mph - N/A   Scattered Clouds
5:35 PM 76.3 °F 57.4 °F 52% 30.01 in 10.0 mi SE 5.8 mph - N/A   Mostly Cloudy
5:55 PM 74.8 °F 59.0 °F 58% 30.00 in 10.0 mi SE 5.8 mph - N/A   Scattered Clouds
6:15 PM 73.2 °F 59.5 °F 62% 30.01 in 10.0 mi SSE 3.5 mph - N/A   Clear
6:35 PM 70.5 °F 61.2 °F 72% 30.02 in 10.0 mi Calm Calm - N/A   Scattered Clouds
6:55 PM 70.2 °F 61.5 °F 74% 30.02 in 10.0 mi SSE 3.5 mph - N/A   Overcast
7:15 PM 68.9 °F 61.7 °F 78% 30.01 in 10.0 mi SE 3.5 mph - N/A   Mostly Cloudy
7:35 PM 67.3 °F 61.7 °F 82% 30.01 in 10.0 mi Calm Calm - N/A   Mostly Cloudy
7:55 PM 65.3 °F 62.6 °F 91% 30.01 in 10.0 mi Calm Calm - N/A   Mostly Cloudy
8:15 PM 64.8 °F 62.6 °F 93% 30.02 in 10.0 mi Calm Calm - N/A   Overcast
8:35 PM 63.5 °F 61.7 °F 94% 30.02 in 10.0 mi Calm Calm - N/A   Scattered Clouds
8:55 PM 61.9 °F 61.0 °F 97% 30.02 in 7.0 mi Calm Calm - N/A   Mostly Cloudy
9:15 PM 61.7 °F 61.2 °F 98% 30.02 in 7.0 mi Calm Calm - N/A   Scattered Clouds
9:35 PM 60.8 °F 59.9 °F 97% 30.03 in 7.0 mi Calm Calm - N/A   Scattered Clouds
9:55 PM 60.6 °F 60.1 °F 98% 30.03 in 7.0 mi Calm Calm - N/A   Mostly Cloudy
10:15 PM 60.6 °F 60.3 °F 99% 30.03 in 10.0 mi Calm Calm - N/A   Mostly Cloudy
10:35 PM 60.4 °F 60.3 °F 99% 30.03 in 7.0 mi Calm Calm - N/A   Mostly Cloudy
10:55 PM 59.7 °F 59.4 °F 99% 30.02 in 7.0 mi Calm Calm - N/A   Mostly Cloudy
11:15 PM 59.4 °F 59.4 °F 100% 30.02 in 7.0 mi Calm Calm - N/A   Clear
11:35 PM 58.6 °F 58.6 °F 100% 30.02 in 7.0 mi Calm Calm - N/A   Clear
11:55 PM 57.6 °F 57.6 °F 100% 30.02 in 5.0 mi Calm Calm - N/A   Clear